Home   Weather   Lappeenranta   Past weeks

Flag for Finland Past Weather in Lappeenranta, Finland — Yesterday and Last 2 Weeks

Now
39 °F

Passing clouds.


Feels Like: 34 °F
Forecast: 31 / 40 °F
Wind: 7 mph from North

Location: Lappeenranta

Current Time: Apr 28, 2017 at 11:49:55 am

Latest Report: Apr 28, 2017 at 11:20 am


Visibility: N/A

Pressure: 30.15 "Hg

Humidity: 75%

Dew Point: 32 °F

Location of LappeenrantaLocation

Past Weather in Lappeenranta — Graph

°F

Lappeenranta Temperature Yesterday

Maximum temperature yesterday: 46 °F (at 11:20 am)
Minimum temperature yesterday: 30 °F (at 11:50 pm)
Average temperature yesterday: 38 °F

High & Low Weather Summary for the Past Weeks

 TemperatureHumidityPressure
High46 °F (Apr 27, 11:20 am)100% (Apr 20, 11:20 pm)30.48 "Hg (Apr 20, 11:20 pm)
Low18 °F (Apr 19, 4:50 am)24% (Apr 19, 5:20 pm)29.15 "Hg (Apr 22, 5:20 am)
Average34 °F74%29.72 "Hg
* Reported Apr 13 10:20 am — Apr 28 10:20 am, Lappeenranta, Weather by CustomWeather, © 2017

Note: Actual official high and low records may vary slightly from our data, if they occured in-between our weather recording intervals... More about our weather records

Advertising

Lappeenranta Weather History for the Previous 24 Hours

Scroll right to see more
 ConditionsComfort  
Time TempWeatherWind HumidityBarometerVisibility
10:20 am
Fri, Apr 28
39 °FPassing clouds.6 mph75%30.12 "HgN/A
9:50 am39 °FPassing clouds.5 mph75%30.09 "HgN/A
9:20 am37 °FSunny.1 mph81%30.09 "Hg10 mi
8:50 am37 °FSunny.3 mph81%30.07 "Hg10 mi
8:20 am36 °FSunny.2 mph87%30.07 "Hg10 mi
7:50 am34 °FSunny.3 mph93%30.07 "Hg10 mi
7:20 am34 °FSunny.3 mph87%30.04 "Hg10 mi
6:50 am30 °FSunny.2 mph100%30.04 "Hg10 mi
6:20 am28 °FSunny.2 mph93%30.01 "Hg10 mi
5:50 am28 °FSunny.2 mph100%30.01 "Hg10 mi
5:20 am28 °FSunny.3 mph100%29.98 "Hg10 mi
4:50 am28 °FClear.1 mph100%29.98 "Hg4 mi
4:20 am28 °FClear.2 mph100%29.98 "Hg10 mi
3:50 am28 °FClear.2 mph100%29.98 "Hg10 mi
3:20 am28 °FClear.2 mph100%29.95 "Hg10 mi
2:50 am30 °FPassing clouds.5 mph100%29.95 "HgN/A
2:20 am32 °FClear.6 mph93%29.95 "Hg10 mi
1:50 am32 °FPassing clouds.6 mph93%29.92 "HgN/A
1:20 am32 °FClear.6 mph93%29.92 "Hg10 mi
12:50 am30 °FClear.3 mph100%29.92 "Hg10 mi
12:20 am30 °FClear.2 mph100%29.92 "Hg10 mi
11:50 pm
Thu, Apr 27
30 °FClear.2 mph93%29.89 "Hg10 mi
11:20 pm34 °FClear.2 mph87%29.89 "Hg10 mi
10:50 pm36 °FClear.3 mph81%29.89 "Hg10 mi
10:20 pm36 °FClear.8 mph81%29.86 "Hg10 mi
9:50 pm36 °FClear.7 mph81%29.86 "Hg10 mi
9:20 pm37 °FPassing clouds.7 mph81%29.86 "HgN/A
8:50 pm37 °FSunny.6 mph87%29.83 "Hg10 mi
8:20 pm39 °FScattered clouds.6 mph81%29.83 "HgN/A
7:50 pm41 °FPassing clouds.6 mph70%29.83 "HgN/A
7:20 pm41 °FPassing clouds.7 mph70%29.80 "HgN/A
6:50 pm43 °FPassing clouds.9 mph66%29.80 "HgN/A
6:20 pm43 °FPassing clouds.9 mph61%29.80 "HgN/A
5:50 pm43 °FScattered clouds.6 mph66%29.77 "HgN/A
5:20 pm45 °FPassing clouds.9 mph61%29.77 "HgN/A
4:50 pm45 °FScattered clouds.10 mph57%29.77 "HgN/A
4:20 pm43 °FPassing clouds.17 mph57%29.77 "HgN/A
3:50 pm45 °FSprinkles. Broken clouds.8 mph49%29.74 "HgN/A
3:20 pm41 °FScattered clouds.12 mph66%29.74 "HgN/A
2:50 pm41 °FLight rain. Partly sunny.14 mph70%29.74 "HgN/A
2:20 pm43 °FPassing clouds.12 mph66%29.71 "HgN/A
1:50 pm46 °FPassing clouds.17 mph43%29.71 "HgN/A
1:20 pm46 °FPassing clouds.15 mph46%29.68 "HgN/A
12:50 pm43 °FPassing clouds.10 mph46%29.68 "HgN/A
12:20 pm45 °FPassing clouds.16 mph46%29.68 "HgN/A
11:50 am46 °FPartly sunny.18 mph43%29.68 "HgN/A
11:20 am46 °FScattered clouds.20 mph50%29.65 "HgN/A
Weather by CustomWeather, © 2017

See weather overviewHow to use our weather pages